Time,TemperatureF,DewpointF,PressureIn,WindDirection,WindDirectionDegrees,WindSpeedMPH,WindSpeedGustMPH,Humidity,HourlyPrecipIn,Conditions,Clouds,dailyrainin,SoftwareType,DateUTC
2013-06-02 00:02:00,52.3,39.7,29.91,SW,218,3.5,3.5,62,0.00,CLR,,0.00,WeatherDisplay:10.37,2013-06-02 07:02:00,
2013-06-02 00:07:00,53.2,39.7,29.91,SW,219,2.3,2.3,60,0.00,CLR,,0.00,WeatherDisplay:10.37,2013-06-02 07:07:00,
2013-06-02 00:12:00,53.4,39.9,29.91,SW,219,3.0,3.0,60,0.00,CLR,,0.00,WeatherDisplay:10.37,2013-06-02 07:12:00,
2013-06-02 00:17:00,53.3,39.8,29.90,SW,219,2.3,2.3,60,0.00,CLR,,0.00,WeatherDisplay:10.37,2013-06-02 07:17:00,
2013-06-02 00:22:00,53.3,38.9,29.90,SW,219,0.0,0.0,58,0.00,CLR,,0.00,WeatherDisplay:10.37,2013-06-02 07:22:00,
2013-06-02 00:27:00,53.1,41.6,29.90,SW,218,2.0,2.0,65,0.00,CLR,,0.00,WeatherDisplay:10.37,2013-06-02 07:27:00,
2013-06-02 00:32:00,51.7,42.2,29.90,SW,218,3.5,3.5,70,0.00,CLR,,0.00,WeatherDisplay:10.37,2013-06-02 07:32:00,
2013-06-02 00:37:00,50.3,41.3,29.91,SW,219,2.3,2.3,71,0.00,CLR,,0.00,WeatherDisplay:10.37,2013-06-02 07:37:00,
2013-06-02 00:42:00,49.6,41.7,29.91,SW,219,3.5,3.5,74,0.00,CLR,,0.00,WeatherDisplay:10.37,2013-06-02 07:42:00,
2013-06-02 00:47:00,49.4,41.8,29.91,SW,219,3.5,3.5,75,0.00,CLR,,0.00,WeatherDisplay:10.37,2013-06-02 07:47:00,
2013-06-02 00:52:00,49.6,41.3,29.91,SW,219,2.3,2.3,73,0.00,CLR,,0.00,WeatherDisplay:10.37,2013-06-02 07:52:00,
2013-06-02 00:57:00,49.9,41.6,29.90,SW,218,2.3,2.3,73,0.00,CLR,,0.00,WeatherDisplay:10.37,2013-06-02 07:57:00,
2013-06-02 01:02:00,49.8,41.5,29.89,SW,219,3.5,3.5,73,0.00,CLR,,0.00,WeatherDisplay:10.37,2013-06-02 08:02:00,
2013-06-02 01:07:00,49.5,41.6,29.89,SW,219,2.3,2.3,74,0.00,CLR,,0.00,WeatherDisplay:10.37,2013-06-02 08:07:00,
2013-06-02 01:12:00,48.7,41.8,29.89,SW,218,3.5,3.5,77,0.00,CLR,,0.00,WeatherDisplay:10.37,2013-06-02 08:12:00,
2013-06-02 01:17:00,47.9,41.4,29.90,SW,219,3.5,3.5,78,0.00,CLR,,0.00,WeatherDisplay:10.37,2013-06-02 08:17:00,
2013-06-02 01:22:00,47.7,41.2,29.90,SW,218,3.5,3.5,78,0.00,CLR,,0.00,WeatherDisplay:10.37,2013-06-02 08:22:00,
2013-06-02 01:27:00,47.6,41.4,29.90,SW,218,3.5,3.5,79,0.00,CLR,,0.00,WeatherDisplay:10.37,2013-06-02 08:27:00,
2013-06-02 01:32:00,47.7,41.5,29.89,SW,218,3.5,3.5,79,0.00,CLR,,0.00,WeatherDisplay:10.37,2013-06-02 08:32:00,
2013-06-02 01:37:00,48.1,41.6,29.89,SW,219,2.3,2.3,78,0.00,CLR,,0.00,WeatherDisplay:10.37,2013-06-02 08:37:00,
2013-06-02 01:42:00,48.1,41.2,29.89,SW,218,3.0,3.0,77,0.00,CLR,,0.00,WeatherDisplay:10.37,2013-06-02 08:42:00,
2013-06-02 01:47:00,48.1,41.2,29.89,SW,219,2.3,2.3,77,0.00,CLR,,0.00,WeatherDisplay:10.37,2013-06-02 08:47:00,
2013-06-02 01:52:00,48.3,41.4,29.89,SW,219,3.5,3.5,77,0.00,CLR,,0.00,WeatherDisplay:10.37,2013-06-02 08:52:00,
2013-06-02 01:57:00,48.2,41.3,29.88,SW,219,2.3,2.3,77,0.00,CLR,,0.00,WeatherDisplay:10.37,2013-06-02 08:57:00,
2013-06-02 02:02:00,48.3,40.7,29.89,SW,218,4.0,4.0,75,0.00,CLR,,0.00,WeatherDisplay:10.37,2013-06-02 09:02:00,
2013-06-02 02:07:00,49.0,41.1,29.88,SW,218,3.5,3.5,74,0.00,CLR,,0.00,WeatherDisplay:10.37,2013-06-02 09:07:00,
2013-06-02 02:12:00,48.9,41.0,29.88,SW,218,2.3,2.3,74,0.00,CLR,,0.00,WeatherDisplay:10.37,2013-06-02 09:12:00,
2013-06-02 02:17:00,48.3,40.7,29.89,SW,219,2.3,2.3,75,0.00,CLR,,0.00,WeatherDisplay:10.37,2013-06-02 09:17:00,
2013-06-02 02:22:00,48.1,40.5,29.89,SW,219,2.3,2.3,75,0.00,CLR,,0.00,WeatherDisplay:10.37,2013-06-02 09:22:00,
2013-06-02 02:27:00,47.9,40.7,29.89,SW,219,3.5,3.5,76,0.00,CLR,,0.00,WeatherDisplay:10.37,2013-06-02 09:27:00,
2013-06-02 02:32:00,47.5,40.3,29.89,SW,219,2.3,2.3,76,0.00,CLR,,0.00,WeatherDisplay:10.37,2013-06-02 09:32:00,
2013-06-02 02:37:00,47.4,40.2,29.89,SW,219,2.3,2.3,76,0.00,CLR,,0.00,WeatherDisplay:10.37,2013-06-02 09:37:00,
2013-06-02 02:42:00,47.8,40.6,29.88,SW,219,0.0,0.0,76,0.00,CLR,,0.00,WeatherDisplay:10.37,2013-06-02 09:42:00,
2013-06-02 02:48:00,47.4,40.2,29.88,SW,219,0.0,0.0,76,0.00,CLR,,0.00,WeatherDisplay:10.37,2013-06-02 09:48:00,
2013-06-02 02:53:00,46.9,40.1,29.88,SW,219,0.0,0.0,77,0.00,CLR,,0.00,WeatherDisplay:10.37,2013-06-02 09:53:00,
2013-06-02 02:58:00,46.3,39.8,29.88,SW,219,0.0,0.0,78,0.00,CLR,,0.00,WeatherDisplay:10.37,2013-06-02 09:58:00,
2013-06-02 03:03:00,46.0,39.9,29.89,SW,219,0.0,0.0,79,0.00,CLR,,0.00,WeatherDisplay:10.37,2013-06-02 10:03:00,
2013-06-02 03:08:00,45.8,39.7,29.89,SW,219,0.0,0.0,79,0.00,CLR,,0.00,WeatherDisplay:10.37,2013-06-02 10:08:00,
2013-06-02 03:13:00,45.5,39.4,29.89,SW,219,2.3,2.3,79,0.00,CLR,,0.00,WeatherDisplay:10.37,2013-06-02 10:13:00,
2013-06-02 03:18:00,44.7,38.9,29.89,SW,219,2.3,2.3,80,0.00,CLR,,0.00,WeatherDisplay:10.37,2013-06-02 10:18:00,
2013-06-02 03:23:00,44.0,38.5,29.89,SW,219,2.3,2.3,81,0.00,CLR,,0.00,WeatherDisplay:10.37,2013-06-02 10:23:00,
2013-06-02 03:28:00,43.8,38.7,29.89,SW,218,2.3,2.3,82,0.00,CLR,,0.00,WeatherDisplay:10.37,2013-06-02 10:28:00,
2013-06-02 03:33:00,44.2,38.4,29.89,WNW,294,4.0,4.0,80,0.00,CLR,,0.00,WeatherDisplay:10.37,2013-06-02 10:33:00,
2013-06-02 03:38:00,45.6,39.1,29.88,WNW,297,2.3,2.3,78,0.00,CLR,,0.00,WeatherDisplay:10.37,2013-06-02 10:38:00,
2013-06-02 03:43:00,45.8,38.7,29.88,WNW,297,3.5,3.5,76,0.00,CLR,,0.00,WeatherDisplay:10.37,2013-06-02 10:43:00,
2013-06-02 03:48:00,44.3,37.9,29.89,WNW,296,2.0,2.0,78,0.00,CLR,,0.00,WeatherDisplay:10.37,2013-06-02 10:48:00,
2013-06-02 03:53:00,43.3,37.9,29.89,WNW,297,3.5,3.5,81,0.00,CLR,,0.00,WeatherDisplay:10.37,2013-06-02 10:53:00,
2013-06-02 03:58:00,42.8,37.7,29.89,WNW,297,2.3,2.3,82,0.00,CLR,,0.00,WeatherDisplay:10.37,2013-06-02 10:58:00,
2013-06-02 04:03:00,42.2,37.4,29.90,WNW,297,3.5,3.5,83,0.00,CLR,,0.00,WeatherDisplay:10.37,2013-06-02 11:03:00,
2013-06-02 04:08:00,41.8,37.3,29.90,WNW,296,3.5,3.5,84,0.00,CLR,,0.00,WeatherDisplay:10.37,2013-06-02 11:08:00,
2013-06-02 04:13:00,42.2,37.4,29.90,WNW,296,2.3,2.3,83,0.00,CLR,,0.00,WeatherDisplay:10.37,2013-06-02 11:13:00,
2013-06-02 04:18:00,42.4,37.9,29.90,WNW,297,1.1,1.1,84,0.00,CLR,,0.00,WeatherDisplay:10.37,2013-06-02 11:18:00,
2013-06-02 04:23:00,43.2,38.1,29.89,WNW,297,0.0,0.0,82,0.00,CLR,,0.00,WeatherDisplay:10.37,2013-06-02 11:23:00,
2013-06-02 04:28:00,42.9,37.2,29.89,WNW,297,3.5,3.5,80,0.00,CLR,,0.00,WeatherDisplay:10.37,2013-06-02 11:28:00,
2013-06-02 04:33:00,41.8,36.4,29.90,WNW,297,3.5,3.5,81,0.00,CLR,,0.00,WeatherDisplay:10.37,2013-06-02 11:33:00,
2013-06-02 04:38:00,41.2,36.7,29.90,WNW,296,3.5,3.5,84,0.00,CLR,,0.00,WeatherDisplay:10.37,2013-06-02 11:38:00,
2013-06-02 04:43:00,41.6,36.8,29.90,WNW,297,3.5,3.5,83,0.00,CLR,,0.00,WeatherDisplay:10.37,2013-06-02 11:43:00,
2013-06-02 04:48:00,41.5,36.7,29.90,WNW,297,3.5,3.5,83,0.00,CLR,,0.00,WeatherDisplay:10.37,2013-06-02 11:48:00,
2013-06-02 04:53:00,42.2,37.4,29.90,WNW,297,3.5,3.5,83,0.00,CLR,,0.00,WeatherDisplay:10.37,2013-06-02 11:53:00,
2013-06-02 04:58:00,42.2,36.8,29.89,WNW,296,2.3,2.3,81,0.00,CLR,,0.00,WeatherDisplay:10.37,2013-06-02 11:58:00,
2013-06-02 05:03:00,41.6,36.8,29.90,WNW,297,3.5,3.5,83,0.00,OVC,,0.00,WeatherDisplay:10.37,2013-06-02 12:03:00,
2013-06-02 05:08:00,41.6,36.8,29.90,WNW,297,4.0,4.0,83,0.00,OVC,,0.00,WeatherDisplay:10.37,2013-06-02 12:08:00,
2013-06-02 05:13:00,42.2,37.4,29.90,WNW,296,3.5,3.5,83,0.00,OVC,,0.00,WeatherDisplay:10.37,2013-06-02 12:13:00,
2013-06-02 05:18:00,43.0,37.9,29.89,WNW,296,3.5,3.5,82,0.00,OVC,,0.00,WeatherDisplay:10.37,2013-06-02 12:18:00,
2013-06-02 05:23:00,44.2,38.4,29.89,WNW,297,0.0,0.0,80,0.00,OVC,,0.00,WeatherDisplay:10.37,2013-06-02 12:23:00,
2013-06-02 05:28:00,46.0,39.5,29.88,WNW,297,4.0,4.0,78,0.00,OVC,,0.00,WeatherDisplay:10.37,2013-06-02 12:28:00,
2013-06-02 05:33:00,48.2,40.6,29.87,WNW,296,3.5,3.5,75,0.00,OVC,,0.00,WeatherDisplay:10.37,2013-06-02 12:33:00,
2013-06-02 05:38:00,50.0,41.0,29.86,WNW,297,2.3,2.3,71,0.00,OVC,,0.00,WeatherDisplay:10.37,2013-06-02 12:38:00,
2013-06-02 05:44:00,49.6,38.7,29.86,WNW,296,3.0,3.0,66,0.00,OVC,,0.00,WeatherDisplay:10.37,2013-06-02 12:44:00,
2013-06-02 05:49:00,45.6,37.8,29.88,WNW,297,2.0,2.0,74,0.00,OVC,,0.00,WeatherDisplay:10.37,2013-06-02 12:49:00,
2013-06-02 05:54:00,44.2,38.1,29.88,WNW,297,0.0,0.0,79,0.00,OVC,,0.00,WeatherDisplay:10.37,2013-06-02 12:54:00,
2013-06-02 05:59:00,43.8,38.3,29.88,WNW,296,0.0,0.0,81,0.00,OVC,,0.00,WeatherDisplay:10.37,2013-06-02 12:59:00,
2013-06-02 06:04:00,43.7,38.3,29.88,WNW,297,0.0,0.0,81,0.00,SCT,,0.00,WeatherDisplay:10.37,2013-06-02 13:04:00,
2013-06-02 06:09:00,45.1,39.0,29.88,WNW,296,1.1,0.0,79,0.00,SCT,,0.00,WeatherDisplay:10.37,2013-06-02 13:09:00,
2013-06-02 06:14:00,46.4,39.2,29.87,WNW,297,0.0,0.0,76,0.00,SCT,,0.00,WeatherDisplay:10.37,2013-06-02 13:14:00,
2013-06-02 06:19:00,47.6,39.0,29.87,WNW,296,0.0,0.0,72,0.00,SCT,,0.00,WeatherDisplay:10.37,2013-06-02 13:19:00,
2013-06-02 06:24:00,49.2,40.2,29.87,WNW,297,0.0,0.0,71,0.00,SCT,,0.00,WeatherDisplay:10.37,2013-06-02 13:24:00,
2013-06-02 06:29:00,49.6,40.2,29.86,WNW,297,0.0,0.0,70,0.00,SCT,,0.00,WeatherDisplay:10.37,2013-06-02 13:29:00,
2013-06-02 06:34:00,49.5,41.9,29.86,WNW,297,1.1,1.1,75,0.00,SCT,,0.00,WeatherDisplay:10.37,2013-06-02 13:34:00,
2013-06-02 06:39:00,48.5,41.6,29.86,WNW,297,0.0,0.0,77,0.00,SCT,,0.00,WeatherDisplay:10.37,2013-06-02 13:39:00,
2013-06-02 06:44:00,48.5,42.3,29.87,WNW,296,0.0,0.0,79,0.00,SCT,,0.00,WeatherDisplay:10.37,2013-06-02 13:44:00,
2013-06-02 06:49:00,48.8,42.6,29.86,WNW,296,0.0,0.0,79,0.00,SCT,,0.00,WeatherDisplay:10.37,2013-06-02 13:49:00,
2013-06-02 06:54:00,49.4,42.8,29.86,WNW,297,0.0,0.0,78,0.00,SCT,,0.00,WeatherDisplay:10.37,2013-06-02 13:54:00,
2013-06-02 06:59:00,50.8,43.2,29.86,WNW,296,0.0,0.0,75,0.00,SCT,,0.00,WeatherDisplay:10.37,2013-06-02 13:59:00,
2013-06-02 07:04:00,53.5,43.6,29.85,WNW,298,1.1,1.1,69,0.00,OVC,,0.00,WeatherDisplay:10.37,2013-06-02 14:04:00,
2013-06-02 07:09:00,55.1,43.9,29.84,WNW,298,0.0,0.0,66,0.00,OVC,,0.00,WeatherDisplay:10.37,2013-06-02 14:09:00,
2013-06-02 07:14:00,55.5,43.1,29.83,WNW,298,0.0,0.0,63,0.00,OVC,,0.00,WeatherDisplay:10.37,2013-06-02 14:14:00,
2013-06-02 07:19:00,55.8,44.6,29.83,WNW,298,3.5,3.5,66,0.00,OVC,,0.00,WeatherDisplay:10.37,2013-06-02 14:19:00,
2013-06-02 07:24:00,55.4,44.6,29.84,WNW,298,3.5,3.5,67,0.00,OVC,,0.00,WeatherDisplay:10.37,2013-06-02 14:24:00,
2013-06-02 07:29:00,55.7,44.1,29.83,WNW,298,1.1,0.0,65,0.00,OVC,,0.00,WeatherDisplay:10.37,2013-06-02 14:29:00,
2013-06-02 07:34:00,56.2,42.1,29.83,WNW,298,2.3,2.3,59,0.00,OVC,,0.00,WeatherDisplay:10.37,2013-06-02 14:34:00,
2013-06-02 07:39:00,56.8,42.2,29.83,WNW,298,1.1,0.0,58,0.00,OVC,,0.00,WeatherDisplay:10.37,2013-06-02 14:39:00,
2013-06-02 07:44:00,57.7,44.3,29.82,WNW,298,1.0,1.0,61,0.00,OVC,,0.00,WeatherDisplay:10.37,2013-06-02 14:44:00,
2013-06-02 07:49:00,59.0,45.1,29.82,WNW,298,3.5,3.5,60,0.00,OVC,,0.00,WeatherDisplay:10.37,2013-06-02 14:49:00,
2013-06-02 07:54:00,60.1,43.4,29.81,WNW,298,0.0,0.0,54,0.00,OVC,,0.00,WeatherDisplay:10.37,2013-06-02 14:54:00,
2013-06-02 07:59:00,60.5,43.8,29.82,WNW,298,1.0,1.0,54,0.00,OVC,,0.00,WeatherDisplay:10.37,2013-06-02 14:59:00,
2013-06-02 08:05:00,61.2,44.9,29.82,NW,323,2.3,2.3,55,0.00,BKN,,0.00,WeatherDisplay:10.37,2013-06-02 15:05:00,
2013-06-02 08:10:00,61.8,46.4,29.81,NW,323,2.3,2.3,57,0.00,BKN,,0.00,WeatherDisplay:10.37,2013-06-02 15:10:00,
2013-06-02 08:15:00,62.4,46.5,29.81,NW,323,3.5,3.5,56,0.00,BKN,,0.00,WeatherDisplay:10.37,2013-06-02 15:15:00,
2013-06-02 08:20:00,62.8,45.9,29.81,North,360,5.8,5.8,54,0.00,BKN,,0.00,WeatherDisplay:10.37,2013-06-02 15:20:00,
2013-06-02 08:25:00,63.2,46.3,29.81,North,5,3.5,3.5,54,0.00,BKN,,0.00,WeatherDisplay:10.37,2013-06-02 15:25:00,
2013-06-02 08:30:00,63.9,47.9,29.80,NNW,331,5.8,5.8,56,0.00,BKN,,0.00,WeatherDisplay:10.37,2013-06-02 15:30:00,
2013-06-02 08:35:00,63.9,47.4,29.80,NNW,329,2.3,2.3,55,0.00,BKN,,0.00,WeatherDisplay:10.37,2013-06-02 15:35:00,
2013-06-02 08:40:00,63.8,46.3,29.80,NNW,337,3.5,3.6,53,0.00,BKN,,0.00,WeatherDisplay:10.37,2013-06-02 15:40:00,
2013-06-02 08:45:00,63.0,46.1,29.81,NW,323,6.9,6.9,54,0.00,BKN,,0.00,WeatherDisplay:10.37,2013-06-02 15:45:00,
2013-06-02 08:50:00,61.8,45.9,29.82,NW,324,7.0,7.0,56,0.00,BKN,,0.00,WeatherDisplay:10.37,2013-06-02 15:50:00,
2013-06-02 08:55:00,59.9,46.0,29.82,NW,323,10.4,10.4,60,0.00,BKN,,0.00,WeatherDisplay:10.37,2013-06-02 15:55:00,
2013-06-02 09:00:00,59.0,46.0,29.85,NW,306,5.0,5.0,62,0.00,BKN,,0.00,WeatherDisplay:10.37,2013-06-02 16:00:00,
2013-06-02 09:05:00,58.2,45.2,29.86,NW,326,2.3,2.3,62,0.00,BKN,,0.00,WeatherDisplay:10.37,2013-06-02 16:05:00,
2013-06-02 09:10:00,57.9,44.5,29.86,NW,324,5.8,5.8,61,0.00,BKN,,0.00,WeatherDisplay:10.37,2013-06-02 16:10:00,
2013-06-02 09:15:00,57.8,45.7,29.86,NNW,327,3.5,3.5,64,0.00,BKN,,0.00,WeatherDisplay:10.37,2013-06-02 16:15:00,
2013-06-02 09:20:00,58.1,45.6,29.86,NW,320,9.0,9.0,63,0.00,BKN,,0.00,WeatherDisplay:10.37,2013-06-02 16:20:00,
2013-06-02 09:25:00,57.8,44.9,29.86,NW,315,9.2,9.2,62,0.00,BKN,,0.00,WeatherDisplay:10.37,2013-06-02 16:25:00,
2013-06-02 09:30:00,57.5,44.6,29.86,WNW,282,5.8,5.8,62,0.00,BKN,,0.00,WeatherDisplay:10.37,2013-06-02 16:30:00,
2013-06-02 09:35:00,57.1,44.2,29.87,NNW,329,9.2,9.2,62,0.00,BKN,,0.00,WeatherDisplay:10.37,2013-06-02 16:35:00,
2013-06-02 09:40:00,56.5,44.0,29.87,NNW,343,6.9,6.9,63,0.00,BKN,,0.00,WeatherDisplay:10.37,2013-06-02 16:40:00,
2013-06-02 09:45:00,56.3,45.1,29.87,NW,318,7.0,7.0,66,0.00,BKN,,0.00,WeatherDisplay:10.37,2013-06-02 16:45:00,
2013-06-02 09:50:00,56.1,45.7,29.87,NNW,341,5.0,5.0,68,0.00,BKN,,0.00,WeatherDisplay:10.37,2013-06-02 16:50:00,
2013-06-02 09:55:00,56.4,46.0,29.87,NNW,333,5.0,5.0,68,0.00,BKN,,0.00,WeatherDisplay:10.37,2013-06-02 16:55:00,
2013-06-02 10:00:00,56.1,45.7,29.87,NNW,328,6.9,6.9,68,0.00,BKN,,0.00,WeatherDisplay:10.37,2013-06-02 17:00:00,
2013-06-02 10:05:00,55.2,46.0,29.87,NW,312,10.4,10.4,71,0.00,OVC,,0.00,WeatherDisplay:10.37,2013-06-02 17:05:00,
2013-06-02 10:10:00,54.3,45.1,29.87,North,9,11.5,11.5,71,0.00,OVC,,0.00,WeatherDisplay:10.37,2013-06-02 17:10:00,
2013-06-02 10:15:00,53.9,45.8,29.88,NW,322,6.9,6.9,74,0.00,OVC,,0.00,WeatherDisplay:10.37,2013-06-02 17:15:00,
2013-06-02 10:20:00,54.8,47.7,29.87,NW,311,11.5,11.5,77,0.00,OVC,,0.00,WeatherDisplay:10.37,2013-06-02 17:20:00,
2013-06-02 10:25:00,56.8,48.2,29.86,NNW,338,6.0,6.0,73,0.00,OVC,,0.00,WeatherDisplay:10.37,2013-06-02 17:25:00,
2013-06-02 10:30:00,58.2,48.1,29.86,WNW,296,6.9,6.9,69,0.00,OVC,,0.00,WeatherDisplay:10.37,2013-06-02 17:30:00,
2013-06-02 10:36:00,58.3,47.0,29.86,NNW,346,10.0,10.0,66,0.00,OVC,,0.00,WeatherDisplay:10.37,2013-06-02 17:36:00,
2013-06-02 10:41:00,58.5,47.6,29.86,NW,324,9.2,9.2,67,0.00,OVC,,0.00,WeatherDisplay:10.37,2013-06-02 17:41:00,
2013-06-02 10:46:00,59.0,48.4,29.85,NW,317,7.0,7.0,68,0.00,OVC,,0.00,WeatherDisplay:10.37,2013-06-02 17:46:00,
2013-06-02 10:51:00,59.0,46.8,29.85,NW,309,13.8,13.8,64,0.00,OVC,,0.00,WeatherDisplay:10.37,2013-06-02 17:51:00,
2013-06-02 10:56:00,59.0,46.8,29.85,North,5,11.5,11.5,64,0.00,OVC,,0.00,WeatherDisplay:10.37,2013-06-02 17:56:00,
2013-06-02 11:01:00,59.0,47.7,29.85,NW,324,6.9,6.9,66,0.00,OVC,,0.00,WeatherDisplay:10.37,2013-06-02 18:01:00,
2013-06-02 11:06:00,59.6,47.0,29.84,NNW,342,11.5,11.5,63,0.00,CLR,,0.00,WeatherDisplay:10.37,2013-06-02 18:06:00,
2013-06-02 11:11:00,59.8,47.6,29.85,NW,309,3.5,3.5,64,0.00,CLR,,0.00,WeatherDisplay:10.37,2013-06-02 18:11:00,
2013-06-02 11:16:00,60.2,47.6,29.85,NNW,342,8.1,8.1,63,0.00,CLR,,0.00,WeatherDisplay:10.37,2013-06-02 18:16:00,
2013-06-02 11:21:00,60.3,46.8,29.85,NW,315,6.9,6.9,61,0.00,CLR,,0.00,WeatherDisplay:10.37,2013-06-02 18:21:00,
2013-06-02 11:26:00,60.2,46.7,29.85,NW,306,12.7,12.7,61,0.00,CLR,,0.00,WeatherDisplay:10.37,2013-06-02 18:26:00,
2013-06-02 11:31:00,59.4,46.8,29.85,NW,308,5.8,5.8,63,0.00,CLR,,0.00,WeatherDisplay:10.37,2013-06-02 18:31:00,
2013-06-02 11:36:00,59.3,46.7,29.85,WNW,283,9.2,9.2,63,0.00,CLR,,0.00,WeatherDisplay:10.37,2013-06-02 18:36:00,
2013-06-02 11:41:00,59.3,46.3,29.85,North,9,11.5,11.5,62,0.00,CLR,,0.00,WeatherDisplay:10.37,2013-06-02 18:41:00,
2013-06-02 11:46:00,59.0,46.4,29.85,NW,322,12.7,12.7,63,0.00,CLR,,0.00,WeatherDisplay:10.37,2013-06-02 18:46:00,
2013-06-02 11:51:00,59.0,46.8,29.85,NW,307,11.5,11.5,64,0.00,CLR,,0.00,WeatherDisplay:10.37,2013-06-02 18:51:00,
2013-06-02 11:56:00,60.2,48.0,29.84,North,360,3.5,3.5,64,0.00,CLR,,0.00,WeatherDisplay:10.37,2013-06-02 18:56:00,
2013-06-02 12:01:00,59.6,45.7,29.85,NNE,19,10.4,10.4,60,0.00,CLR,,0.00,WeatherDisplay:10.37,2013-06-02 19:01:00,
2013-06-02 12:06:00,59.1,47.7,29.86,NW,304,6.9,6.9,66,0.00,BKN,,0.00,WeatherDisplay:10.37,2013-06-02 19:06:00,
2013-06-02 12:11:00,59.0,46.0,29.85,NNE,14,10.4,10.4,62,0.00,BKN,,0.00,WeatherDisplay:10.37,2013-06-02 19:11:00,
2013-06-02 12:16:00,59.0,46.4,29.86,WNW,289,11.5,11.5,63,0.00,BKN,,0.00,WeatherDisplay:10.37,2013-06-02 19:16:00,
2013-06-02 12:21:00,59.0,46.0,29.85,NW,323,13.0,13.0,62,0.00,BKN,,0.00,WeatherDisplay:10.37,2013-06-02 19:21:00,
2013-06-02 12:26:00,58.6,46.5,29.85,NW,309,5.8,6.2,64,0.00,BKN,,0.00,WeatherDisplay:10.37,2013-06-02 19:26:00,
2013-06-02 12:31:00,59.0,48.1,29.85,North,5,10.0,10.0,67,0.00,BKN,,0.00,WeatherDisplay:10.37,2013-06-02 19:31:00,
2013-06-02 12:36:00,59.6,46.1,29.85,WNW,300,11.5,11.5,61,0.00,BKN,,0.00,WeatherDisplay:10.37,2013-06-02 19:36:00,
2013-06-02 12:41:00,59.0,46.0,29.85,NW,304,5.8,5.8,62,0.00,BKN,,0.00,WeatherDisplay:10.37,2013-06-02 19:41:00,
2013-06-02 12:46:00,58.5,46.4,29.85,North,360,3.5,3.5,64,0.00,BKN,,0.00,WeatherDisplay:10.37,2013-06-02 19:46:00,
2013-06-02 12:51:00,58.2,45.7,29.85,WNW,302,11.5,11.5,63,0.00,BKN,,0.00,WeatherDisplay:10.37,2013-06-02 19:51:00,
2013-06-02 12:56:00,57.6,45.1,29.85,NW,306,11.5,11.5,63,0.00,BKN,,0.00,WeatherDisplay:10.37,2013-06-02 19:56:00,
2013-06-02 13:01:00,57.2,45.5,29.86,NW,306,5.8,5.8,65,0.00,BKN,,0.00,WeatherDisplay:10.37,2013-06-02 20:01:00,
2013-06-02 13:06:00,57.1,45.4,29.86,NW,326,4.0,4.0,65,0.00,SCT,,0.00,WeatherDisplay:10.37,2013-06-02 20:06:00,
2013-06-02 13:11:00,57.2,42.1,29.87,SW,233,4.6,4.6,57,0.00,SCT,,0.00,WeatherDisplay:10.37,2013-06-02 20:11:00,
2013-06-02 13:16:00,57.8,45.3,29.85,NW,325,3.5,3.5,63,0.00,SCT,,0.00,WeatherDisplay:10.37,2013-06-02 20:16:00,
2013-06-02 13:21:00,58.1,44.7,29.85,WNW,286,3.5,3.5,61,0.00,SCT,,0.00,WeatherDisplay:10.37,2013-06-02 20:21:00,
2013-06-02 13:26:00,58.3,44.5,29.86,NNW,331,2.3,2.3,60,0.00,SCT,,0.00,WeatherDisplay:10.37,2013-06-02 20:26:00,
2013-06-02 13:31:00,59.0,46.8,29.85,North,355,3.5,3.5,64,0.00,SCT,,0.00,WeatherDisplay:10.37,2013-06-02 20:31:00,
2013-06-02 13:36:00,60.2,48.0,29.84,NNW,330,10.4,10.4,64,0.00,SCT,,0.00,WeatherDisplay:10.37,2013-06-02 20:36:00,
2013-06-02 13:41:00,60.5,47.0,29.84,North,350,3.5,3.5,61,0.00,SCT,,0.00,WeatherDisplay:10.37,2013-06-02 20:41:00,
2013-06-02 13:46:00,59.6,47.4,29.84,NW,304,2.3,2.3,64,0.00,SCT,,0.00,WeatherDisplay:10.37,2013-06-02 20:46:00,
2013-06-02 13:51:00,59.4,50.4,29.85,WNW,298,3.5,3.5,72,0.00,SCT,,0.00,WeatherDisplay:10.37,2013-06-02 20:51:00,
2013-06-02 13:56:00,59.9,50.1,29.84,NNW,339,3.5,3.5,70,0.00,SCT,,0.00,WeatherDisplay:10.37,2013-06-02 20:56:00,
2013-06-02 14:01:00,59.0,48.4,29.86,NW,315,2.3,2.3,68,0.00,SCT,,0.00,WeatherDisplay:10.37,2013-06-02 21:01:00,
2013-06-02 14:06:00,58.5,49.5,29.85,NW,311,2.3,2.3,72,0.00,SCT,,0.00,WeatherDisplay:10.37,2013-06-02 21:06:00,
2013-06-02 14:11:00,59.0,49.6,29.85,NW,312,3.5,3.5,71,0.00,SCT,,0.00,WeatherDisplay:10.37,2013-06-02 21:11:00,
2013-06-02 14:16:00,59.2,45.8,29.85,WNW,286,5.8,5.8,61,0.00,SCT,,0.00,WeatherDisplay:10.37,2013-06-02 21:16:00,
2013-06-02 14:21:00,59.0,48.1,29.85,WNW,290,3.5,3.5,67,0.00,SCT,,0.00,WeatherDisplay:10.37,2013-06-02 21:21:00,
2013-06-02 14:26:00,60.0,47.4,29.84,WNW,283,10.4,10.4,63,0.00,SCT,,0.00,WeatherDisplay:10.37,2013-06-02 21:26:00,
2013-06-02 14:31:00,59.4,48.0,29.85,WNW,288,17.3,17.3,66,0.00,SCT,,0.00,WeatherDisplay:10.37,2013-06-02 21:31:00,
2013-06-02 14:36:00,59.0,46.8,29.85,NW,311,8.1,8.1,64,0.00,SCT,,0.00,WeatherDisplay:10.37,2013-06-02 21:36:00,
2013-06-02 14:41:00,59.0,45.1,29.85,WNW,286,12.7,12.7,60,0.00,SCT,,0.00,WeatherDisplay:10.37,2013-06-02 21:41:00,
2013-06-02 14:46:00,58.3,44.5,29.85,WNW,291,11.5,11.5,60,0.00,SCT,,0.00,WeatherDisplay:10.37,2013-06-02 21:46:00,
2013-06-02 14:51:00,57.2,46.3,29.86,NW,318,10.4,10.4,67,0.00,SCT,,0.00,WeatherDisplay:10.37,2013-06-02 21:51:00,
2013-06-02 14:56:00,56.6,48.4,29.86,NW,318,1.1,1.1,74,0.00,SCT,,0.00,WeatherDisplay:10.37,2013-06-02 21:56:00,
2013-06-02 15:01:00,57.3,48.7,29.87,NW,319,3.5,3.5,73,0.00,BKN,,0.00,WeatherDisplay:10.37,2013-06-02 22:01:00,
2013-06-02 15:06:00,59.0,48.8,29.87,NW,316,6.0,6.0,69,0.00,BKN,,0.00,WeatherDisplay:10.37,2013-06-02 22:06:00,
2013-06-02 15:11:00,59.8,45.9,29.87,NNW,338,6.9,6.9,60,0.01,RA,,0.01,WeatherDisplay:10.37,2013-06-02 22:11:00,
2013-06-02 15:16:00,59.7,44.9,29.88,WNW,299,9.2,9.2,58,0.01,RA,,0.01,WeatherDisplay:10.37,2013-06-02 22:16:00,
2013-06-02 15:21:00,59.0,45.1,29.88,NW,311,5.8,5.8,60,0.01,BKN,,0.01,WeatherDisplay:10.37,2013-06-02 22:21:00,
2013-06-02 15:26:00,58.6,44.8,29.89,WNW,284,4.6,4.6,60,0.01,BKN,,0.01,WeatherDisplay:10.37,2013-06-02 22:26:00,
2013-06-02 15:31:00,57.6,43.4,29.90,NW,314,4.6,4.6,59,0.01,BKN,,0.01,WeatherDisplay:10.37,2013-06-02 22:31:00,
2013-06-02 15:36:00,56.9,43.2,29.90,NW,309,6.0,6.0,60,0.01,BKN,,0.01,WeatherDisplay:10.37,2013-06-02 22:36:00,
2013-06-02 15:41:00,56.0,43.2,29.91,West,275,10.0,10.0,62,0.01,BKN,,0.01,WeatherDisplay:10.37,2013-06-02 22:41:00,
2013-06-02 15:46:00,54.8,42.9,29.92,WNW,290,19.6,19.6,64,0.01,BKN,,0.01,WeatherDisplay:10.37,2013-06-02 22:46:00,
2013-06-02 15:51:00,53.1,42.8,29.92,WNW,300,12.7,12.7,68,0.01,BKN,,0.01,WeatherDisplay:10.37,2013-06-02 22:51:00,
2013-06-02 15:56:00,51.7,43.0,29.93,NW,321,17.3,17.3,72,0.01,BKN,,0.01,WeatherDisplay:10.37,2013-06-02 22:56:00,
2013-06-02 16:01:00,50.6,43.3,29.94,West,279,12.7,12.7,76,0.01,-RA,,0.01,WeatherDisplay:10.37,2013-06-02 23:01:00,
2013-06-02 16:06:00,49.7,43.8,29.94,WNW,292,6.0,6.0,80,0.02,-RA,,0.02,WeatherDisplay:10.37,2013-06-02 23:06:00,
2013-06-02 16:11:00,48.9,43.6,29.95,NW,314,11.5,11.5,82,0.01,-RA,,0.02,WeatherDisplay:10.37,2013-06-02 23:11:00,
2013-06-02 16:17:00,48.6,44.3,29.95,NW,306,3.5,3.5,85,0.02,-RA,,0.03,WeatherDisplay:10.37,2013-06-02 23:17:00,
2013-06-02 16:22:00,48.3,44.0,29.95,NNE,13,5.8,5.8,85,0.03,-RA,,0.04,WeatherDisplay:10.37,2013-06-02 23:22:00,
2013-06-02 16:27:00,47.8,43.8,29.95,NNW,327,4.0,4.0,86,0.03,-RA,,0.04,WeatherDisplay:10.37,2013-06-02 23:27:00,
2013-06-02 16:32:00,47.5,43.8,29.95,NW,313,6.0,6.0,87,0.04,-RA,,0.06,WeatherDisplay:10.37,2013-06-02 23:32:00,
2013-06-02 16:37:00,47.4,44.0,29.94,WNW,286,8.0,8.0,88,0.05,-RA,,0.06,WeatherDisplay:10.37,2013-06-02 23:37:00,
2013-06-02 16:42:00,47.9,43.9,29.93,WNW,283,19.6,19.6,86,0.06,-RA,,0.07,WeatherDisplay:10.37,2013-06-02 23:42:00,
2013-06-02 16:47:00,49.4,44.8,29.93,West,277,17.3,17.3,84,0.07,-RA,,0.08,WeatherDisplay:10.37,2013-06-02 23:47:00,
2013-06-02 16:52:00,50.6,45.6,29.93,WNW,298,13.0,13.0,83,0.08,-RA,,0.09,WeatherDisplay:10.37,2013-06-02 23:52:00,
2013-06-02 16:57:00,51.2,45.6,29.92,WNW,294,10.4,10.4,81,0.08,-RA,,0.09,WeatherDisplay:10.37,2013-06-02 23:57:00,
2013-06-02 17:02:00,51.2,44.9,29.92,WNW,287,15.0,15.0,79,0.08,OVC,,0.09,WeatherDisplay:10.37,2013-06-03 00:02:00,
2013-06-02 17:07:00,50.1,44.5,29.92,WNW,295,16.1,16.1,81,0.07,OVC,,0.09,WeatherDisplay:10.37,2013-06-03 00:07:00,
2013-06-02 17:12:00,49.4,44.5,29.93,WNW,285,11.5,11.5,83,0.07,OVC,,0.09,WeatherDisplay:10.37,2013-06-03 00:12:00,
2013-06-02 17:17:00,49.1,44.5,29.92,West,275,10.4,10.4,84,0.06,OVC,,0.09,WeatherDisplay:10.37,2013-06-03 00:17:00,
2013-06-02 17:22:00,49.1,44.5,29.92,WNW,284,8.1,8.1,84,0.05,OVC,,0.09,WeatherDisplay:10.37,2013-06-03 00:22:00,
2013-06-02 17:27:00,50.3,46.6,29.92,West,268,10.4,10.4,87,0.05,OVC,,0.09,WeatherDisplay:10.37,2013-06-03 00:27:00,
2013-06-02 17:32:00,51.4,46.1,29.91,West,261,14.0,14.0,82,0.04,OVC,,0.09,WeatherDisplay:10.37,2013-06-03 00:32:00,
2013-06-02 17:37:00,51.5,46.2,29.91,West,280,12.0,12.0,82,0.03,OVC,,0.09,WeatherDisplay:10.37,2013-06-03 00:37:00,
2013-06-02 17:42:00,51.6,45.6,29.91,West,275,10.4,10.4,80,0.02,OVC,,0.09,WeatherDisplay:10.37,2013-06-03 00:42:00,
2013-06-02 17:47:00,52.1,46.1,29.91,West,273,7.0,7.0,80,0.01,OVC,,0.09,WeatherDisplay:10.37,2013-06-03 00:47:00,
2013-06-02 17:52:00,52.3,46.0,29.91,West,272,11.5,11.5,79,0.00,OVC,,0.09,WeatherDisplay:10.37,2013-06-03 00:52:00,
2013-06-02 17:57:00,52.1,45.8,29.91,West,273,4.6,4.6,79,0.00,OVC,,0.09,WeatherDisplay:10.37,2013-06-03 00:57:00,
2013-06-02 18:02:00,51.6,45.3,29.89,West,272,9.2,9.2,79,0.00,FEW,,0.09,WeatherDisplay:10.37,2013-06-03 01:02:00,
2013-06-02 18:07:00,51.4,45.4,29.89,West,277,6.9,6.9,80,0.00,FEW,,0.09,WeatherDisplay:10.37,2013-06-03 01:07:00,
2013-06-02 18:12:00,51.8,46.2,29.89,West,276,5.8,5.8,81,0.00,FEW,,0.09,WeatherDisplay:10.37,2013-06-03 01:12:00,
2013-06-02 18:17:00,52.2,45.9,29.89,West,275,6.9,6.9,79,0.00,FEW,,0.09,WeatherDisplay:10.37,2013-06-03 01:17:00,
2013-06-02 18:22:00,52.6,46.3,29.89,West,265,6.0,6.0,79,0.00,FEW,,0.09,WeatherDisplay:10.37,2013-06-03 01:22:00,
2013-06-02 18:27:00,52.8,43.7,29.89,West,277,9.2,9.2,71,0.00,FEW,,0.09,WeatherDisplay:10.37,2013-06-03 01:27:00,
2013-06-02 18:32:00,53.3,45.2,29.89,West,272,10.4,10.4,74,0.00,FEW,,0.09,WeatherDisplay:10.37,2013-06-03 01:32:00,
2013-06-02 18:37:00,53.5,43.2,29.89,WNW,285,11.5,11.5,68,0.00,FEW,,0.09,WeatherDisplay:10.37,2013-06-03 01:37:00,
2013-06-02 18:42:00,53.2,43.7,29.89,West,261,11.5,11.5,70,0.00,FEW,,0.09,WeatherDisplay:10.37,2013-06-03 01:42:00,
2013-06-02 18:47:00,53.0,43.5,29.90,WSW,246,11.5,11.5,70,0.00,FEW,,0.09,WeatherDisplay:10.37,2013-06-03 01:47:00,
2013-06-02 18:52:00,52.7,42.8,29.90,West,273,11.5,11.5,69,0.00,FEW,,0.09,WeatherDisplay:10.37,2013-06-03 01:52:00,
2013-06-02 18:57:00,52.7,43.6,29.90,West,261,5.8,5.8,71,0.00,FEW,,0.09,WeatherDisplay:10.37,2013-06-03 01:57:00,
2013-06-02 19:02:00,52.5,42.6,29.86,West,268,9.2,9.2,69,0.00,CLR,,0.09,WeatherDisplay:10.37,2013-06-03 02:02:00,
2013-06-02 19:07:00,52.5,43.4,29.86,West,268,8.1,8.1,71,0.00,CLR,,0.09,WeatherDisplay:10.37,2013-06-03 02:07:00,
2013-06-02 19:12:00,52.6,43.1,29.86,West,269,5.8,5.8,70,0.00,CLR,,0.09,WeatherDisplay:10.37,2013-06-03 02:12:00,
2013-06-02 19:17:00,52.8,43.7,29.86,West,269,3.5,3.5,71,0.00,CLR,,0.09,WeatherDisplay:10.37,2013-06-03 02:17:00,
2013-06-02 19:22:00,52.9,43.7,29.86,West,274,5.8,5.8,71,0.00,CLR,,0.09,WeatherDisplay:10.37,2013-06-03 02:22:00,
2013-06-02 19:27:00,52.6,44.2,29.86,West,274,5.8,5.8,73,0.00,CLR,,0.09,WeatherDisplay:10.37,2013-06-03 02:27:00,
2013-06-02 19:32:00,52.3,43.5,29.87,West,273,6.0,6.0,72,0.00,CLR,,0.09,WeatherDisplay:10.37,2013-06-03 02:32:00,
2013-06-02 19:37:00,52.0,44.0,29.87,West,274,3.5,3.5,74,0.00,CLR,,0.09,WeatherDisplay:10.37,2013-06-03 02:37:00,
2013-06-02 19:42:00,51.8,43.8,29.87,West,273,3.5,3.5,74,0.00,CLR,,0.09,WeatherDisplay:10.37,2013-06-03 02:42:00,
2013-06-02 19:47:00,51.6,43.6,29.87,West,273,4.6,4.6,74,0.00,CLR,,0.09,WeatherDisplay:10.37,2013-06-03 02:47:00,
2013-06-02 19:52:00,51.4,43.0,29.87,West,273,6.9,6.9,73,0.00,CLR,,0.09,WeatherDisplay:10.37,2013-06-03 02:52:00,
2013-06-02 19:57:00,51.3,43.6,29.87,West,273,6.9,6.9,75,0.00,CLR,,0.09,WeatherDisplay:10.37,2013-06-03 02:57:00,
2013-06-02 20:03:00,51.1,43.4,29.88,West,273,4.0,4.0,75,0.00,CLR,,0.09,WeatherDisplay:10.37,2013-06-03 03:03:00,
2013-06-02 20:08:00,50.8,43.5,29.88,West,274,4.6,5.3,76,0.00,CLR,,0.09,WeatherDisplay:10.37,2013-06-03 03:08:00,
2013-06-02 20:13:00,50.7,43.1,29.88,West,274,5.0,5.0,75,0.00,CLR,,0.09,WeatherDisplay:10.37,2013-06-03 03:13:00,
2013-06-02 20:18:00,50.3,43.0,29.89,West,273,2.3,2.3,76,0.00,CLR,,0.09,WeatherDisplay:10.37,2013-06-03 03:18:00,
2013-06-02 20:23:00,49.7,42.4,29.89,West,273,5.0,5.0,76,0.00,CLR,,0.09,WeatherDisplay:10.37,2013-06-03 03:23:00,
2013-06-02 20:28:00,49.4,42.5,29.89,West,274,2.3,2.3,77,0.00,CLR,,0.09,WeatherDisplay:10.37,2013-06-03 03:28:00,
2013-06-02 20:33:00,49.1,42.5,29.89,West,273,2.3,2.3,78,0.00,CLR,,0.09,WeatherDisplay:10.37,2013-06-03 03:33:00,
2013-06-02 20:38:00,48.8,42.2,29.89,West,274,0.0,0.0,78,0.00,CLR,,0.09,WeatherDisplay:10.37,2013-06-03 03:38:00,
2013-06-02 20:43:00,48.6,42.4,29.89,West,274,0.0,0.1,79,0.00,CLR,,0.09,WeatherDisplay:10.37,2013-06-03 03:43:00,
2013-06-02 20:48:00,48.5,42.6,29.90,West,273,2.3,2.3,80,0.00,CLR,,0.09,WeatherDisplay:10.37,2013-06-03 03:48:00,
2013-06-02 20:53:00,48.3,42.4,29.90,West,274,3.5,3.5,80,0.00,CLR,,0.09,WeatherDisplay:10.37,2013-06-03 03:53:00,
2013-06-02 20:58:00,48.1,42.2,29.90,West,274,3.5,3.5,80,0.00,CLR,,0.09,WeatherDisplay:10.37,2013-06-03 03:58:00,
2013-06-02 21:01:00,48.0,42.4,29.91,West,273,2.3,2.3,81,0.00,CLR,,0.09,WeatherDisplay:10.37,2013-06-03 04:01:00,
2013-06-02 21:06:00,48.0,42.4,29.91,West,274,2.3,2.3,81,0.00,CLR,,0.09,WeatherDisplay:10.37,2013-06-03 04:06:00,
2013-06-02 21:12:00,47.9,42.3,29.91,West,273,2.3,0.0,81,0.00,CLR,,0.09,WeatherDisplay:10.37,2013-06-03 04:12:00,
2013-06-02 21:17:00,47.9,42.3,29.91,West,274,2.3,2.3,81,0.00,CLR,,0.09,WeatherDisplay:10.37,2013-06-03 04:17:00,
2013-06-02 21:22:00,47.9,42.0,29.92,West,273,2.0,2.0,80,0.00,CLR,,0.09,WeatherDisplay:10.37,2013-06-03 04:22:00,
2013-06-02 21:27:00,47.8,41.9,29.92,West,273,3.5,3.5,80,0.00,CLR,,0.09,WeatherDisplay:10.37,2013-06-03 04:27:00,
2013-06-02 21:32:00,47.8,41.9,29.92,West,274,3.5,3.5,80,0.00,CLR,,0.09,WeatherDisplay:10.37,2013-06-03 04:32:00,
2013-06-02 21:37:00,47.7,41.8,29.92,West,274,2.3,2.3,80,0.00,CLR,,0.09,WeatherDisplay:10.37,2013-06-03 04:37:00,
2013-06-02 21:42:00,47.7,41.8,29.92,West,273,2.3,2.3,80,0.00,CLR,,0.09,WeatherDisplay:10.37,2013-06-03 04:42:00,
2013-06-02 21:47:00,47.7,41.8,29.92,West,274,2.3,2.3,80,0.00,CLR,,0.09,WeatherDisplay:10.37,2013-06-03 04:47:00,
2013-06-02 21:52:00,47.8,41.9,29.92,West,273,2.3,2.3,80,0.00,CLR,,0.09,WeatherDisplay:10.37,2013-06-03 04:52:00,
2013-06-02 21:57:00,47.7,41.8,29.92,West,273,2.3,2.3,80,0.00,CLR,,0.09,WeatherDisplay:10.37,2013-06-03 04:57:00,
2013-06-02 22:02:00,47.5,41.6,29.91,West,274,2.3,2.3,80,0.00,CLR,,0.09,WeatherDisplay:10.37,2013-06-03 05:02:00,
2013-06-02 22:07:00,47.4,41.5,29.92,West,274,2.3,2.3,80,0.00,CLR,,0.09,WeatherDisplay:10.37,2013-06-03 05:07:00,
2013-06-02 22:12:00,47.5,41.6,29.92,West,274,1.1,1.1,80,0.00,CLR,,0.09,WeatherDisplay:10.37,2013-06-03 05:12:00,
2013-06-02 22:17:00,47.8,41.9,29.92,West,273,3.5,3.5,80,0.00,CLR,,0.09,WeatherDisplay:10.37,2013-06-03 05:17:00,
2013-06-02 22:22:00,48.2,42.0,29.92,West,273,4.6,4.6,79,0.00,CLR,,0.09,WeatherDisplay:10.37,2013-06-03 05:22:00,
2013-06-02 22:27:00,48.4,42.2,29.92,West,273,4.6,4.6,79,0.00,CLR,,0.09,WeatherDisplay:10.37,2013-06-03 05:27:00,
2013-06-02 22:32:00,48.5,42.3,29.91,West,273,4.0,4.0,79,0.00,CLR,,0.09,WeatherDisplay:10.37,2013-06-03 05:32:00,
2013-06-02 22:37:00,49.0,42.4,29.91,West,274,4.6,4.6,78,0.00,CLR,,0.09,WeatherDisplay:10.37,2013-06-03 05:37:00,
2013-06-02 22:42:00,49.2,42.3,29.91,West,274,3.5,3.5,77,0.00,CLR,,0.09,WeatherDisplay:10.37,2013-06-03 05:42:00,
2013-06-02 22:47:00,49.0,42.4,29.90,West,273,0.0,0.0,78,0.00,CLR,,0.09,WeatherDisplay:10.37,2013-06-03 05:47:00,
2013-06-02 22:52:00,49.2,42.3,29.90,West,273,4.6,4.6,77,0.00,CLR,,0.09,WeatherDisplay:10.37,2013-06-03 05:52:00,
2013-06-02 22:57:00,49.6,42.3,29.90,West,273,5.8,5.8,76,0.00,CLR,,0.09,WeatherDisplay:10.37,2013-06-03 05:57:00,
2013-06-02 23:02:00,49.2,42.3,29.90,West,273,4.6,4.7,77,0.00,CLR,,0.09,WeatherDisplay:10.37,2013-06-03 06:02:00,
2013-06-02 23:07:00,48.8,41.9,29.90,West,274,6.9,6.9,77,0.00,CLR,,0.09,WeatherDisplay:10.37,2013-06-03 06:07:00,
2013-06-02 23:12:00,48.9,41.7,29.90,West,273,6.9,6.9,76,0.00,CLR,,0.09,WeatherDisplay:10.37,2013-06-03 06:12:00,
2013-06-02 23:17:00,49.3,41.7,29.90,West,273,6.0,6.0,75,0.00,CLR,,0.09,WeatherDisplay:10.37,2013-06-03 06:17:00,
2013-06-02 23:22:00,49.9,41.9,29.90,West,273,5.8,5.8,74,0.00,CLR,,0.09,WeatherDisplay:10.37,2013-06-03 06:22:00,
2013-06-02 23:27:00,49.9,41.6,29.90,West,273,5.0,5.0,73,0.00,CLR,,0.09,WeatherDisplay:10.37,2013-06-03 06:27:00,
2013-06-02 23:32:00,49.9,41.6,29.90,West,273,5.8,5.8,73,0.00,CLR,,0.09,WeatherDisplay:10.37,2013-06-03 06:32:00,
2013-06-02 23:37:00,50.1,41.8,29.90,West,274,6.0,6.0,73,0.00,CLR,,0.09,WeatherDisplay:10.37,2013-06-03 06:37:00,
2013-06-02 23:42:00,50.2,41.9,29.90,West,274,5.8,5.8,73,0.00,CLR,,0.09,WeatherDisplay:10.37,2013-06-03 06:42:00,
2013-06-02 23:47:00,50.1,41.8,29.90,West,273,4.6,4.6,73,0.00,CLR,,0.09,WeatherDisplay:10.37,2013-06-03 06:47:00,
2013-06-02 23:52:00,49.8,41.8,29.90,West,273,6.0,6.0,74,0.00,CLR,,0.09,WeatherDisplay:10.37,2013-06-03 06:52:00,
2013-06-02 23:57:00,49.6,41.7,29.90,West,273,5.0,5.0,74,0.00,CLR,,0.09,WeatherDisplay:10.37,2013-06-03 06:57:00,